{"data":{"norad_id":59893,"intl_designator":"2024-100J","name":"STARLINK-31963","alt_names":[],"object_type":"PAYLOAD","status":"ACTIVE","operator":null,"country":"US","launch_date":"2024-05-28","launch_site_code":"AFETR","launch_vehicle":null,"mission":null,"orbit_class":"UNKNOWN","rcs_meters":null,"size_class":null,"mass_kg":null,"dimensions":null,"purposes":["comms"],"wikipedia_slug":null,"has_3d_model":false,"image_url":null,"decayed_at":null,"tle_current":{"epoch":"2026-05-25T02:46:09.778080Z","epoch_age_seconds":68218,"freshness":"FRESH","line1":"1 59893U 24100J   26145.11539095  .00002603  00000+0  10408-3 0  9998","line2":"2 59893  42.9984  53.9195 0000687 231.2526 128.8265 15.27579350112848","mean_motion":15.2757935,"eccentricity":6.87e-5,"inclination_deg":42.9984,"raan_deg":53.9195,"arg_perigee_deg":231.2526,"mean_anomaly_deg":128.8265,"bstar":0.00010408,"rev_number":11284,"period_min":94.266788825078,"perigee_km":482.57967875567,"apogee_km":483.52240599269,"semimajor_km":6861.1880423742,"source":"CELESTRAK","updated_at":"2026-05-25T13:38:19.117555Z"}}}